Time,TemperatureF,DewpointF,PressureIn,WindDirection,WindDirectionDegrees,WindSpeedMPH,WindSpeedGustMPH,Humidity,HourlyPrecipIn,Conditions,Clouds,dailyrainin,SoftwareType,DateUTC
2013-07-25 00:02:00,62.0,-99.9,-100.00,NNE,31,0.0,-999.0,-999,-99.99,,,-99.99,,2013-07-25 04:02:00,
2013-07-25 00:12:00,62.0,-99.9,-100.00,NNE,20,0.0,-999.0,-999,-99.99,,,-99.99,,2013-07-25 04:12:00,
2013-07-25 00:33:00,62.0,-99.9,-100.00,NNE,18,0.0,-999.0,-999,-99.99,,,-99.99,,2013-07-25 04:33:00,
2013-07-25 00:43:00,61.0,-99.9,-100.00,NNE,18,0.0,-999.0,-999,-99.99,,,-99.99,,2013-07-25 04:43:00,
2013-07-25 00:53:00,61.0,-99.9,-100.00,NNE,18,0.0,-999.0,-999,-99.99,,,-99.99,,2013-07-25 04:53:00,
2013-07-25 01:02:00,61.0,-99.9,-100.00,NNE,18,0.0,-999.0,-999,-99.99,,,-99.99,,2013-07-25 05:02:00,
2013-07-25 01:12:00,60.0,-99.9,-100.00,NNE,18,0.0,-999.0,-999,-99.99,,,-99.99,,2013-07-25 05:12:00,
2013-07-25 01:32:00,60.0,-99.9,-100.00,NNE,18,0.0,-999.0,-999,-99.99,,,-99.99,,2013-07-25 05:32:00,
2013-07-25 01:43:00,60.0,-99.9,-100.00,NNE,18,0.0,-999.0,-999,-99.99,,,-99.99,,2013-07-25 05:43:00,
2013-07-25 01:52:00,59.0,-99.9,-100.00,NNE,18,0.0,-999.0,-999,-99.99,,,-99.99,,2013-07-25 05:52:00,
2013-07-25 02:02:00,59.0,-99.9,-100.00,NNE,18,0.0,-999.0,-999,-99.99,,,-99.99,,2013-07-25 06:02:00,
2013-07-25 02:12:00,59.0,-99.9,-100.00,NNE,18,0.0,-999.0,-999,-99.99,,,-99.99,,2013-07-25 06:12:00,
2013-07-25 02:22:00,59.0,-99.9,-100.00,NNE,18,0.0,-999.0,-999,-99.99,,,-99.99,,2013-07-25 06:22:00,
2013-07-25 02:32:00,59.0,-99.9,-100.00,NNE,18,0.0,-999.0,-999,-99.99,,,-99.99,,2013-07-25 06:32:00,
2013-07-25 02:42:00,59.0,-99.9,-100.00,NNE,18,0.0,-999.0,-999,-99.99,,,-99.99,,2013-07-25 06:42:00,
2013-07-25 02:52:00,58.0,-99.9,-100.00,NNE,18,0.0,-999.0,-999,-99.99,,,-99.99,,2013-07-25 06:52:00,
2013-07-25 03:02:00,58.0,-99.9,-100.00,NNE,18,0.0,-999.0,-999,-99.99,,,-99.99,,2013-07-25 07:02:00,
2013-07-25 03:12:00,58.0,-99.9,-100.00,NNE,18,0.0,-999.0,-999,-99.99,,,-99.99,,2013-07-25 07:12:00,
2013-07-25 03:22:00,58.0,-99.9,-100.00,NNE,18,0.0,-999.0,-999,-99.99,,,-99.99,,2013-07-25 07:22:00,
2013-07-25 03:33:00,57.0,-99.9,-100.00,NNE,18,0.0,-999.0,-999,-99.99,,,-99.99,,2013-07-25 07:33:00,
2013-07-25 03:43:00,57.0,-99.9,-100.00,NNE,18,0.0,-999.0,-999,-99.99,,,-99.99,,2013-07-25 07:43:00,
2013-07-25 03:53:00,57.0,-99.9,-100.00,NNE,18,0.0,-999.0,-999,-99.99,,,-99.99,,2013-07-25 07:53:00,
2013-07-25 04:02:00,57.0,-99.9,-100.00,NNE,18,0.0,-999.0,-999,-99.99,,,-99.99,,2013-07-25 08:02:00,
2013-07-25 04:12:00,57.0,-99.9,-100.00,NNE,18,0.0,-999.0,-999,-99.99,,,-99.99,,2013-07-25 08:12:00,
2013-07-25 04:22:00,57.0,-99.9,-100.00,NNE,18,0.0,-999.0,-999,-99.99,,,-99.99,,2013-07-25 08:22:00,
2013-07-25 04:44:00,56.0,-99.9,-100.00,NNE,18,0.0,-999.0,-999,-99.99,,,-99.99,,2013-07-25 08:44:00,
2013-07-25 04:52:00,57.0,-99.9,-100.00,NNE,18,0.0,-999.0,-999,-99.99,,,-99.99,,2013-07-25 08:52:00,
2013-07-25 05:02:00,56.0,-99.9,-100.00,NNE,18,0.0,-999.0,-999,-99.99,,,-99.99,,2013-07-25 09:02:00,
2013-07-25 05:12:00,56.0,-99.9,-100.00,NNE,18,0.0,-999.0,-999,-99.99,,,-99.99,,2013-07-25 09:12:00,
2013-07-25 05:22:00,56.0,-99.9,-100.00,NNE,18,0.0,-999.0,-999,-99.99,,,-99.99,,2013-07-25 09:22:00,
2013-07-25 05:33:00,56.0,-99.9,-100.00,NNE,18,0.0,-999.0,-999,-99.99,,,-99.99,,2013-07-25 09:33:00,
2013-07-25 05:43:00,56.0,-99.9,-100.00,NNE,18,0.0,-999.0,-999,-99.99,,,-99.99,,2013-07-25 09:43:00,
2013-07-25 05:53:00,56.0,-99.9,-100.00,NNE,18,0.0,-999.0,-999,-99.99,,,-99.99,,2013-07-25 09:53:00,
2013-07-25 06:03:00,55.0,-99.9,-100.00,NNE,18,0.0,-999.0,-999,-99.99,,,-99.99,,2013-07-25 10:03:00,
2013-07-25 06:12:00,55.0,-99.9,-100.00,NNE,18,0.0,-999.0,-999,-99.99,,,-99.99,,2013-07-25 10:12:00,
2013-07-25 06:32:00,55.0,-99.9,-100.00,NNE,18,0.0,-999.0,-999,-99.99,,,-99.99,,2013-07-25 10:32:00,
2013-07-25 06:43:00,55.0,-99.9,-100.00,NNE,18,0.0,-999.0,-999,-99.99,,,-99.99,,2013-07-25 10:43:00,
2013-07-25 06:53:00,55.0,-99.9,-100.00,NNE,18,0.0,-999.0,-999,-99.99,,,-99.99,,2013-07-25 10:53:00,
2013-07-25 07:03:00,55.0,-99.9,-100.00,NNE,18,0.0,-999.0,-999,-99.99,,,-99.99,,2013-07-25 11:03:00,
2013-07-25 07:12:00,55.0,-99.9,-100.00,NNE,18,0.0,-999.0,-999,-99.99,,,-99.99,,2013-07-25 11:12:00,
2013-07-25 07:32:00,55.0,-99.9,-100.00,NNE,18,0.0,-999.0,-999,-99.99,,,-99.99,,2013-07-25 11:32:00,
2013-07-25 07:43:00,56.0,-99.9,-100.00,NNE,18,0.0,-999.0,-999,-99.99,,,-99.99,,2013-07-25 11:43:00,
2013-07-25 07:53:00,57.0,-99.9,-100.00,NNE,18,0.0,-999.0,-999,-99.99,,,-99.99,,2013-07-25 11:53:00,
2013-07-25 08:03:00,57.0,-99.9,-100.00,NNE,18,0.0,-999.0,-999,-99.99,,,-99.99,,2013-07-25 12:03:00,
2013-07-25 08:12:00,58.0,-99.9,-100.00,NNE,18,0.0,-999.0,-999,-99.99,,,-99.99,,2013-07-25 12:12:00,
2013-07-25 08:32:00,60.0,-99.9,-100.00,NNE,18,0.0,-999.0,-999,-99.99,,,-99.99,,2013-07-25 12:32:00,
2013-07-25 08:45:00,61.0,-99.9,-100.00,ESE,102,3.0,-999.0,-999,-99.99,,,-99.99,,2013-07-25 12:45:00,
2013-07-25 08:53:00,62.0,-99.9,-100.00,ENE,73,0.0,-999.0,-999,-99.99,,,-99.99,,2013-07-25 12:53:00,
2013-07-25 09:13:00,62.0,-99.9,-100.00,North,7,0.0,-999.0,-999,-99.99,,,-99.99,,2013-07-25 13:13:00,
2013-07-25 09:33:00,65.0,-99.9,-100.00,NNE,16,0.0,-999.0,-999,-99.99,,,-99.99,,2013-07-25 13:33:00,
2013-07-25 09:43:00,65.0,-99.9,-100.00,ENE,66,1.0,-999.0,-999,-99.99,,,-99.99,,2013-07-25 13:43:00,
2013-07-25 09:53:00,66.0,-99.9,-100.00,ENE,73,0.0,-999.0,-999,-99.99,,,-99.99,,2013-07-25 13:53:00,
2013-07-25 10:02:00,66.0,-99.9,-100.00,ENE,73,0.0,-999.0,-999,-99.99,,,-99.99,,2013-07-25 14:02:00,
2013-07-25 10:12:00,67.0,-99.9,-100.00,ENE,75,0.0,-999.0,-999,-99.99,,,-99.99,,2013-07-25 14:12:00,
2013-07-25 10:33:00,68.0,-99.9,-100.00,East,84,0.0,-999.0,-999,-99.99,,,-99.99,,2013-07-25 14:33:00,
2013-07-25 10:43:00,69.0,-99.9,-100.00,East,91,0.0,-999.0,-999,-99.99,,,-99.99,,2013-07-25 14:43:00,
2013-07-25 10:53:00,70.0,-99.9,-100.00,East,83,0.0,-999.0,-999,-99.99,,,-99.99,,2013-07-25 14:53:00,
2013-07-25 11:03:00,71.0,-99.9,-100.00,SSW,192,0.0,-999.0,-999,-99.99,,,-99.99,,2013-07-25 15:03:00,
2013-07-25 11:12:00,71.0,-99.9,-100.00,SSW,192,0.0,-999.0,-999,-99.99,,,-99.99,,2013-07-25 15:12:00,
2013-07-25 11:33:00,71.0,-99.9,-100.00,ENE,74,4.0,-999.0,-999,-99.99,,,-99.99,,2013-07-25 15:33:00,
2013-07-25 11:44:00,73.0,-99.9,-100.00,ESE,111,0.0,-999.0,-999,-99.99,,,-99.99,,2013-07-25 15:44:00,
2013-07-25 11:53:00,72.0,-99.9,-100.00,NNE,25,2.0,-999.0,-999,-99.99,,,-99.99,,2013-07-25 15:53:00,
2013-07-25 12:02:00,72.0,-99.9,-100.00,NNE,25,2.0,-999.0,-999,-99.99,,,-99.99,,2013-07-25 16:02:00,
2013-07-25 12:23:00,74.0,-99.9,-100.00,North,1,4.0,-999.0,-999,-99.99,,,-99.99,,2013-07-25 16:23:00,
2013-07-25 12:45:00,71.0,-99.9,-100.00,North,0,2.0,-999.0,-999,-99.99,,,-99.99,,2013-07-25 16:45:00,
2013-07-25 12:53:00,73.0,-99.9,-100.00,ENE,62,1.0,-999.0,-999,-99.99,,,-99.99,,2013-07-25 16:53:00,
2013-07-25 13:03:00,73.0,-99.9,-100.00,ENE,62,1.0,-999.0,-999,-99.99,,,-99.99,,2013-07-25 17:03:00,
2013-07-25 13:12:00,72.0,-99.9,-100.00,North,0,1.0,-999.0,-999,-99.99,,,-99.99,,2013-07-25 17:12:00,
2013-07-25 13:32:00,73.0,-99.9,-100.00,NNE,14,6.0,-999.0,-999,-99.99,,,-99.99,,2013-07-25 17:32:00,
2013-07-25 13:43:00,76.0,-99.9,-100.00,NNE,32,0.0,-999.0,-999,-99.99,,,-99.99,,2013-07-25 17:43:00,
2013-07-25 13:53:00,76.0,-99.9,-100.00,NNE,32,0.0,-999.0,-999,-99.99,,,-99.99,,2013-07-25 17:53:00,
2013-07-25 14:02:00,76.0,-99.9,-100.00,NNE,32,0.0,-999.0,-999,-99.99,,,-99.99,,2013-07-25 18:02:00,
2013-07-25 14:12:00,76.0,-99.9,-100.00,NNE,32,0.0,-999.0,-999,-99.99,,,-99.99,,2013-07-25 18:12:00,
2013-07-25 14:34:00,75.0,-99.9,-100.00,North,354,0.0,-999.0,-999,-99.99,,,-99.99,,2013-07-25 18:34:00,
2013-07-25 14:43:00,73.0,-99.9,-100.00,NNE,23,2.0,-999.0,-999,-99.99,,,-99.99,,2013-07-25 18:43:00,
2013-07-25 14:53:00,72.0,-99.9,-100.00,NNE,24,2.0,-999.0,-999,-99.99,,,-99.99,,2013-07-25 18:53:00,
2013-07-25 15:03:00,72.0,-99.9,-100.00,NNE,24,2.0,-999.0,-999,-99.99,,,-99.99,,2013-07-25 19:03:00,
2013-07-25 15:12:00,72.0,-99.9,-100.00,NNE,24,2.0,-999.0,-999,-99.99,,,-99.99,,2013-07-25 19:12:00,
2013-07-25 15:23:00,73.0,-99.9,-100.00,North,10,0.0,-999.0,-999,-99.99,,,-99.99,,2013-07-25 19:23:00,
2013-07-25 15:33:00,73.0,-99.9,-100.00,North,10,0.0,-999.0,-999,-99.99,,,-99.99,,2013-07-25 19:33:00,
2013-07-25 15:43:00,73.0,-99.9,-100.00,North,10,0.0,-999.0,-999,-99.99,,,-99.99,,2013-07-25 19:43:00,
2013-07-25 15:53:00,73.0,-99.9,-100.00,North,10,0.0,-999.0,-999,-99.99,,,-99.99,,2013-07-25 19:53:00,
2013-07-25 16:03:00,73.0,-99.9,-100.00,North,10,0.0,-999.0,-999,-99.99,,,-99.99,,2013-07-25 20:03:00,
2013-07-25 16:12:00,73.0,-99.9,-100.00,North,10,0.0,-999.0,-999,-99.99,,,-99.99,,2013-07-25 20:12:00,
2013-07-25 16:22:00,75.0,-99.9,-100.00,North,11,0.0,-999.0,-999,-99.99,,,-99.99,,2013-07-25 20:22:00,
2013-07-25 16:32:00,75.0,-99.9,-100.00,North,11,0.0,-999.0,-999,-99.99,,,-99.99,,2013-07-25 20:32:00,
2013-07-25 16:43:00,75.0,-99.9,-100.00,North,11,0.0,-999.0,-999,-99.99,,,-99.99,,2013-07-25 20:43:00,
2013-07-25 16:54:00,75.0,-99.9,-100.00,North,0,3.0,-999.0,-999,-99.99,,,-99.99,,2013-07-25 20:54:00,
2013-07-25 17:03:00,75.0,-99.9,-100.00,North,0,3.0,-999.0,-999,-99.99,,,-99.99,,2013-07-25 21:03:00,
2013-07-25 17:13:00,76.0,-99.9,-100.00,North,0,0.0,-999.0,-999,-99.99,,,-99.99,,2013-07-25 21:13:00,
2013-07-25 17:33:00,75.0,-99.9,-100.00,North,0,0.0,-999.0,-999,-99.99,,,-99.99,,2013-07-25 21:33:00,
2013-07-25 17:44:00,75.0,-99.9,-100.00,North,0,0.0,-999.0,-999,-99.99,,,-99.99,,2013-07-25 21:44:00,
2013-07-25 17:53:00,75.0,-99.9,-100.00,North,0,0.0,-999.0,-999,-99.99,,,-99.99,,2013-07-25 21:53:00,
2013-07-25 18:03:00,75.0,-99.9,-100.00,North,0,0.0,-999.0,-999,-99.99,,,-99.99,,2013-07-25 22:03:00,
2013-07-25 18:12:00,75.0,-99.9,-100.00,North,0,0.0,-999.0,-999,-99.99,,,-99.99,,2013-07-25 22:12:00,
2013-07-25 18:22:00,75.0,-99.9,-100.00,North,0,0.0,-999.0,-999,-99.99,,,-99.99,,2013-07-25 22:22:00,
2013-07-25 18:43:00,76.0,-99.9,-100.00,ESE,102,1.0,-999.0,-999,-99.99,,,-99.99,,2013-07-25 22:43:00,
2013-07-25 18:53:00,76.0,-99.9,-100.00,ESE,102,1.0,-999.0,-999,-99.99,,,-99.99,,2013-07-25 22:53:00,
2013-07-25 19:12:00,75.0,-99.9,-100.00,ENE,76,0.0,-999.0,-999,-99.99,,,-99.99,,2013-07-25 23:12:00,
2013-07-25 19:22:00,75.0,-99.9,-100.00,East,88,0.0,-999.0,-999,-99.99,,,-99.99,,2013-07-25 23:22:00,
2013-07-25 19:32:00,75.0,-99.9,-100.00,East,88,0.0,-999.0,-999,-99.99,,,-99.99,,2013-07-25 23:32:00,
2013-07-25 19:43:00,75.0,-99.9,-100.00,ENE,78,0.0,-999.0,-999,-99.99,,,-99.99,,2013-07-25 23:43:00,
2013-07-25 19:52:00,74.0,-99.9,-100.00,NNE,30,0.0,-999.0,-999,-99.99,,,-99.99,,2013-07-25 23:52:00,
2013-07-25 20:03:00,74.0,-99.9,-100.00,NNE,30,0.0,-999.0,-999,-99.99,,,-99.99,,2013-07-26 00:03:00,
2013-07-25 20:13:00,74.0,-99.9,-100.00,NNE,30,0.0,-999.0,-999,-99.99,,,-99.99,,2013-07-26 00:13:00,
2013-07-25 20:22:00,74.0,-99.9,-100.00,North,5,0.0,-999.0,-999,-99.99,,,-99.99,,2013-07-26 00:22:00,
2013-07-25 20:33:00,73.0,-99.9,-100.00,North,5,0.0,-999.0,-999,-99.99,,,-99.99,,2013-07-26 00:33:00,
2013-07-25 20:43:00,73.0,-99.9,-100.00,North,5,0.0,-999.0,-999,-99.99,,,-99.99,,2013-07-26 00:43:00,
2013-07-25 20:52:00,73.0,-99.9,-100.00,North,4,0.0,-999.0,-999,-99.99,,,-99.99,,2013-07-26 00:52:00,
2013-07-25 21:02:00,73.0,-99.9,-100.00,North,4,0.0,-999.0,-999,-99.99,,,-99.99,,2013-07-26 01:02:00,
2013-07-25 21:12:00,72.0,-99.9,-100.00,North,4,0.0,-999.0,-999,-99.99,,,-99.99,,2013-07-26 01:12:00,
2013-07-25 21:33:00,71.0,-99.9,-100.00,North,4,0.0,-999.0,-999,-99.99,,,-99.99,,2013-07-26 01:33:00,
2013-07-25 21:43:00,71.0,-99.9,-100.00,North,4,0.0,-999.0,-999,-99.99,,,-99.99,,2013-07-26 01:43:00,
2013-07-25 21:52:00,70.0,-99.9,-100.00,North,4,0.0,-999.0,-999,-99.99,,,-99.99,,2013-07-26 01:52:00,
2013-07-25 22:02:00,70.0,-99.9,-100.00,North,4,0.0,-999.0,-999,-99.99,,,-99.99,,2013-07-26 02:02:00,
2013-07-25 22:12:00,69.0,-99.9,-100.00,North,4,0.0,-999.0,-999,-99.99,,,-99.99,,2013-07-26 02:12:00,
2013-07-25 22:22:00,69.0,-99.9,-100.00,North,4,0.0,-999.0,-999,-99.99,,,-99.99,,2013-07-26 02:22:00,
2013-07-25 22:43:00,68.0,-99.9,-100.00,North,5,0.0,-999.0,-999,-99.99,,,-99.99,,2013-07-26 02:43:00,
2013-07-25 22:52:00,67.0,-99.9,-100.00,North,5,0.0,-999.0,-999,-99.99,,,-99.99,,2013-07-26 02:52:00,
2013-07-25 23:02:00,67.0,-99.9,-100.00,North,5,0.0,-999.0,-999,-99.99,,,-99.99,,2013-07-26 03:02:00,
2013-07-25 23:12:00,67.0,-99.9,-100.00,North,5,0.0,-999.0,-999,-99.99,,,-99.99,,2013-07-26 03:12:00,
2013-07-25 23:22:00,67.0,-99.9,-100.00,North,5,0.0,-999.0,-999,-99.99,,,-99.99,,2013-07-26 03:22:00,
2013-07-25 23:33:00,67.0,-99.9,-100.00,North,5,0.0,-999.0,-999,-99.99,,,-99.99,,2013-07-26 03:33:00,
2013-07-25 23:44:00,66.0,-99.9,-100.00,North,5,0.0,-999.0,-999,-99.99,,,-99.99,,2013-07-26 03:44:00,
2013-07-25 23:53:00,65.0,-99.9,-100.00,North,5,0.0,-999.0,-999,-99.99,,,-99.99,,2013-07-26 03:53:00,